sat.trackr.live / text

‹ back to catalog

STARLINK-2701

NORAD 48656 · 2021-044U

PAYLOAD ACTIVE UNKNOWN

§ Identity

Operator
Country
US
Launch date
2021-05-26
Launch site
AFETR
Launch vehicle
Mass (kg)
RCS (m²)

Purposes: comms

External: N2YO · Heavens-Above · Gunter

§ Orbital elements

Epoch: 2026-09-12T21:51:31.982112Z

Period
94.01 min
Inclination
53.1602°
Eccentricity
0.0001262
Mean motion
15.31700474 rev/d
Perigee alt
469.9 km
Apogee alt
471.6 km
Semi-major
6,848.9 km
B*
1.1480e-4
RAAN
322.5589°
Arg perigee
81.2550°
Mean anomaly
278.8595°
Rev number
29,251

§ Raw data

STARLINK-27011 48656U 21044U   26255.91078683  .00003199  00000+0  11480-3 0  99902 48656  53.1602 322.5589 0001262  81.2550 278.8595 15.31700474292519

JSON: /api/v1/satellites/48656 · /tle

For live sub-satellite position, see the globe view (requires WebGL).

§ Visibility from observer

Set your observer location to see the next 7 days of passes ≥ 10°. The values pass through the URL so the page stays shareable.

No JS? Fill the form by hand. The geolocation button needs JavaScript.